Temp
11 11 11 11 11 11 11 11 11 11 11 11 10 10 10 10 10 9 9 9 9 9 9 9 9 9 9 9 9 9 10 10 10 11 11 11 11 12 13 12 13 13 14 14 14 15 15 15 16 17 17 17 17 17 17 17 17 17 17 16 16 16 16 16 16 16 16 16 16 16 16 17 16 16 16 16 16 16 16 15 15 16 16 15 15
11 11 11 11 11 11 11 11 11 11 11 10 10 10 10 10 9 9 9 9 9 9 9 9 9 9 9 9 9 9 10 10 10 10 10 11 11 12 13 13 13 13 13 14 14 14 15 15 16 16 17 17 17 17 17 17 17 17 17 17 16 16 16 16 16 16 16 16 16 16 16 16 16 16 16 16 16 16 16 15 15 15 15 15 15
11 11 11 11 11 11 11 11 11 11 10 10 10 10 11 10 9 9 9 9 9 9 9 9 9 9 9 9 9 9 10 10 10 10 10 10 11 11 12 13 13 13 13 13 14 14 14 15 15 16 16 16 16 17 17 16 16 16 16 16 16 16 16 16 16 16 16 16 16 16 16 16 16 16 16 16 16 16 16 15 15 15 15 15 15
11 11 11 11 11 11 11 11 11 11 10 10 10 10 11 10 10 9 9 9 9 9 9 9 8 8 9 9 9 10 10 10 10 10 10 10 10 11 11 12 13 13 13 14 14 14 14 14 15 15 15 16 16 16 16 16 16 16 16 16 16 17 17 17 16 16 16 16 16 16 16 16 16 16 16 16 16 16 16 15 15 15 15 15 15
11 11 11 11 11 11 11 11 10 10 10 10 10 10 10 10 10 9 9 9 9 9 9 9 8 9 9 9 10 10 10 10 10 9 9 10 10 10 11 11 12 13 13 14 14 14 14 14 14 14 15 15 15 16 16 17 17 16 16 16 16 16 17 17 16 16 16 16 16 16 16 16 16 16 16 16 16 16 16 15 15 15 15 15 15
11 11 11 11 11 11 11 10 10 10 10 10 10 10 10 9 9 9 9 9 9 9 9 9 8 9 9 10 10 10 10 10 9 9 9 9 9 10 10 10 11 12 13 13 14 14 14 14 15 15 15 15 15 15 16 16 17 16 16 16 16 16 17 17 16 16 16 16 16 16 16 16 16 16 16 16 16 16 16 16 15 15 15 14 14
11 11 11 11 11 11 10 10 11 10 10 10 10 9 9 9 9 9 9 9 9 9 9 8 8 9 9 10 10 10 10 9 9 9 8 8 9 9 9 9 10 10 11 12 13 13 14 14 14 15 15 15 14 15 15 16 16 17 17 17 16 16 16 16 16 16 16 16 16 16 16 16 16 16 16 16 16 15 15 15 15 15 15 15 14
11 11 11 11 11 11 11 11 11 10 10 10 9 9 9 9 9 9 9 9 9 9 9 9 9 9 10 10 10 10 9 9 8 8 8 8 9 9 9 9 10 10 10 10 11 12 13 14 14 15 15 15 15 15 15 15 16 16 17 17 16 16 16 16 16 16 16 16 16 16 16 16 15 15 16 15 15 15 15 15 14 14 14 14 14
11 11 11 11 11 11 11 11 11 10 10 9 9 9 9 9 9 9 9 9 9 9 9 9 9 10 10 10 10 10 9 8 8 8 8 8 8 9 9 9 10 10 10 10 10 11 12 12 13 14 14 14 15 15 15 15 16 16 16 16 16 16 16 16 16 16 16 16 16 16 16 15 15 15 15 15 15 15 14 14 14 14 14 14 13
11 11 11 11 11 11 11 11 10 9 9 9 9 9 9 9 9 9 9 9 9 9 8 8 9 10 10 11 10 9 9 8 8 8 8 8 8 8 8 9 10 10 10 10 10 10 11 12 12 12 13 13 14 14 14 15 15 15 16 16 16 16 16 16 16 16 16 16 15 16 16 15 15 15 15 14 14 14 14 14 15 14 14 13 12
11 11 11 11 11 11 11 10 10 9 9 9 9 9 9 9 9 9 9 9 9 9 8 9 10 11 10 11 10 9 9 8 8 7 7 7 7 7 7 8 9 9 10 10 11 11 11 11 12 12 12 12 12 13 14 15 15 15 16 16 16 16 15 15 15 15 15 15 15 15 15 15 15 14 14 14 14 14 14 14 14 13 13 12 12
11 10 11 11 11 11 10 10 9 9 8 8 8 9 9 9 9 9 9 9 9 8 8 10 11 11 11 11 10 9 9 8 8 7 7 7 7 7 7 7 8 8 9 10 10 11 11 11 11 11 12 12 13 14 15 15 15 15 16 16 16 16 16 15 15 15 15 15 15 15 15 14 14 14 13 13 13 13 13 13 13 13 12 12 12
10 10 10 11 11 10 10 10 9 9 8 8 8 8 9 9 9 9 9 9 9 8 9 9 9 10 10 10 10 10 9 9 8 8 7 7 7 7 7 7 7 7 8 9 9 10 11 11 11 12 12 12 12 14 14 14 14 15 15 15 15 15 15 15 15 15 14 14 14 14 14 13 13 13 13 13 13 12 12 12 12 13 12 12 12
10 10 10 10 10 10 10 9 9 8 8 8 8 8 8 9 9 9 9 9 9 8 9 9 8 8 8 9 10 10 10 9 8 8 7 7 7 7 7 7 7 7 7 8 8 9 10 10 11 12 12 12 12 13 13 13 14 14 14 15 15 15 15 15 15 14 13 13 13 13 13 13 12 12 12 12 12 12 12 12 12 12 12 12 12
10 10 10 10 10 10 10 9 8 8 8 8 8 8 8 8 8 9 9 9 9 9 9 8 8 8 8 8 9 9 10 10 9 8 8 7 7 7 7 7 7 7 7 7 7 8 8 9 10 11 11 12 12 13 13 13 14 14 15 15 15 15 15 14 14 14 13 13 13 13 12 12 12 12 12 12 12 12 12 12 12 12 12 12 12
10 10 10 10 10 10 10 9 9 8 8 7 8 8 8 8 8 9 9 9 9 9 9 9 8 8 8 8 9 9 9 9 9 8 8 7 7 7 7 7 7 7 7 7 7 7 8 8 10 10 11 11 12 12 12 13 13 14 15 15 14 14 14 14 14 13 13 13 12 12 12 12 12 12 12 12 12 12 12 12 12 11 11 12 12
10 10 10 10 10 10 10 9 9 8 7 7 7 8 8 8 8 8 8 9 9 9 9 9 8 8 8 8 9 9 9 9 9 9 8 8 7 7 7 7 7 7 7 7 7 7 7 8 9 10 10 11 11 12 12 12 13 13 14 14 14 14 13 13 13 13 12 12 12 12 12 12 12 12 12 12 12 12 12 12 11 11 11 11 11
10 10 10 10 10 10 10 9 9 8 8 7 7 7 8 8 8 8 8 8 9 9 9 9 8 9 8 8 8 8 8 9 9 8 8 8 7 7 7 7 7 7 7 7 7 7 7 7 8 9 9 10 11 11 12 12 12 13 13 13 13 13 13 13 13 13 12 12 12 12 12 12 12 12 12 12 12 12 11 11 11 11 11 11 11
10 10 10 10 10 10 10 10 9 8 8 7 7 7 7 7 8 8 8 8 8 8 8 8 8 9 9 9 9 8 8 8 8 8 8 8 8 8 8 8 8 8 7 7 7 7 7 7 8 8 9 9 10 11 11 11 12 12 12 13 13 13 13 13 13 13 13 12 12 12 12 12 12 12 12 12 11 11 11 11 11 11 11 11 11
10 10 10 10 10 10 10 10 9 9 8 8 7 7 7 8 8 8 8 8 8 8 8 8 8 8 8 8 8 8 8 8 8 8 8 7 8 8 8 8 8 8 7 7 7 7 7 7 8 8 9 9 9 10 10 11 11 12 12 12 12 13 13 13 13 13 13 13 12 12 12 12 12 12 11 11 11 11 11 11 10 10 10 10 10
10 10 10 10 10 10 11 10 10 9 8 8 8 7 7 7 7 8 8 8 7 7 7 7 7 7 8 8 8 8 8 8 8 8 8 7 7 7 8 8 8 8 8 8 8 8 7 7 8 8 8 9 9 10 10 10 10 11 11 11 11 12 12 13 12 12 13 13 12 12 12 12 11 11 11 11 11 11 10 10 10 10 10 10 10
10 10 10 10 10 11 11 11 10 9 9 8 8 8 8 7 7 8 8 8 7 7 7 7 7 7 7 7 7 8 8 8 7 7 7 7 7 7 7 7 8 8 8 8 8 8 8 7 8 8 8 9 9 10 10 10 10 11 11 11 11 12 12 12 12 12 12 12 12 12 11 11 11 11 11 11 11 10 10 10 10 10 10 10 10
10 10 10 10 11 11 11 11 10 10 9 8 8 8 8 8 8 8 8 8 7 7 8 8 7 7 7 7 7 7 7 7 7 7 7 7 7 7 7 7 8 8 8 8 8 8 8 8 8 8 8 8 9 10 10 10 10 10 11 11 11 12 12 12 12 12 11 11 11 11 11 11 11 11 11 11 10 10 10 10 10 9 9 10 10
10 10 10 10 11 11 11 11 11 10 10 9 9 9 9 8 8 8 8 8 8 7 7 7 8 8 7 7 7 7 7 7 7 7 7 7 7 8 8 8 8 8 8 8 8 8 8 8 8 8 7 8 8 9 10 10 10 10 11 11 11 11 12 12 12 11 11 11 11 11 11 11 11 11 11 10 10 10 10 9 9 9 9 9 9
9 10 10 10 10 11 11 11 11 11 11 11 10 10 10 9 9 9 8 8 8 7 7 7 8 8 7 7 7 7 7 7 7 7 7 7 7 8 8 8 8 8 9 8 8 9 9 9 8 8 8 8 8 9 10 10 10 10 10 10 10 10 11 11 11 11 11 11 11 11 11 10 10 10 10 10 10 10 10 9 9 9 9 9 9
9 9 9 10 10 10 11 11 11 11 11 11 11 11 11 10 10 9 9 8 8 8 8 8 8 8 8 8 8 8 8 8 8 8 7 7 7 7 8 9 9 9 9 8 8 8 9 9 9 8 8 8 9 9 10 10 10 10 10 10 10 10 10 10 10 11 11 11 11 10 10 10 10 10 10 10 10 9 9 9 9 9 9 9 9
9 9 9 10 10 10 11 11 11 11 11 11 11 11 11 11 10 10 10 9 9 9 9 9 9 9 8 8 8 8 8 8 8 8 7 7 7 7 7 8 9 9 9 9 8 8 8 9 9 9 9 9 9 9 9 9 9 10 10 10 10 10 10 10 10 10 10 11 10 10 10 10 9 9 9 9 9 9 9 8 9 9 9 9 9
9 9 9 10 10 11 11 11 11 11 11 11 11 11 11 10 10 10 10 10 10 9 9 9 9 9 8 8 8 8 9 9 8 8 8 8 8 8 8 8 8 8 8 8 8 8 9 9 9 9 9 9 9 9 9 9 9 9 10 10 10 10 10 10 10 10 9 9 10 10 10 9 9 9 8 8 8 8 8 8 8 8 8 8 8
9 9 9 10 10 11 11 11 11 11 11 11 11 10 10 10 10 9 9 10 10 10 10 9 9 9 9 9 9 9 9 9 9 9 9 9 8 8 8 7 8 8 8 8 8 8 9 9 9 9 9 9 9 9 9 9 9 9 9 9 9 9 9 10 9 9 8 8 9 9 9 9 9 8 8 8 8 8 8 8 8 8 7 8 8
9 9 9 10 10 11 11 11 11 11 11 11 11 10 10 10 10 9 9 9 10 10 10 10 9 9 9 9 9 9 9 9 9 9 9 9 9 8 8 8 8 7 7 8 9 9 9 9 9 9 9 9 9 9 9 9 9 9 9 9 9 9 9 8 7 7 7 7 7 8 8 8 8 8 8 8 8 8 8 7 7 7 7 8 8
9 9 9 10 10 10 11 11 11 10 10 11 11 11 10 10 10 9 9 9 9 9 9 9 9 9 9 9 9 9 9 9 9 9 9 9 9 9 8 8 8 7 7 8 9 9 9 9 9 9 8 8 9 9 9 9 8 9 9 9 8 7 7 6 6 6 6 6 6 7 7 8 8 8 8 8 8 8 7 7 7 7 7 7 8
9 9 9 9 10 10 11 11 11 11 10 11 11 10 11 10 10 9 9 9 9 9 9 9 9 9 9 10 9 9 9 9 10 9 9 9 9 9 9 9 9 8 8 8 9 9 9 9 9 10 9 9 9 9 8 8 8 8 8 8 8 7 6 6 6 6 6 6 6 6 7 7 7 7 7 8 8 8 8 7 7 7 8 8 7
9 9 9 9 10 10 10 11 11 10 11 11 10 10 11 10 10 10 9 9 9 9 9 9 9 9 9 9 10 9 9 9 10 10 9 9 9 9 9 9 9 9 8 8 8 9 9 9 10 10 10 9 9 8 8 8 8 8 8 8 8 7 6 6 6 6 6 6 6 6 7 7 7 7 7 7 7 8 8 8 7 7 7 8 7
9 9 9 9 10 10 10 10 10 10 10 10 10 10 10 10 10 10 10 10 10 9 10 10 10 10 10 10 9 9 9 9 9 9 9 9 9 9 9 9 9 9 9 9 8 9 9 9 9 10 10 10 9 9 9 8 8 8 8 8 8 7 7 6 6 6 6 6 6 6 6 6 7 6 6 6 7 7 8 8 8 7 8 8 7
9 9 9 9 9 10 10 10 10 10 10 10 10 10 10 10 10 10 10 10 10 10 10 10 10 10 10 10 10 10 9 9 9 9 9 9 9 9 9 9 9 9 9 9 9 8 8 9 9 9 9 10 9 9 9 9 8 8 8 8 8 7 7 6 6 6 6 6 7 7 6 6 6 6 6 7 6 7 7 7 7 7 7 7 7
9 9 9 9 9 10 10 10 10 10 10 9 9 9 9 10 10 10 10 10 10 10 10 10 10 10 10 10 10 10 10 10 9 9 9 9 9 9 9 9 9 9 9 9 9 9 8 9 9 9 9 10 10 9 9 9 9 9 8 8 8 8 7 7 7 7 7 7 7 7 7 6 6 6 6 7 7 7 7 7 7 7 7 7 7
9 9 9 9 9 10 10 10 10 9 9 9 9 9 9 9 10 10 10 10 10 10 10 10 10 10 10 10 10 10 10 10 10 9 9 10 10 10 9 9 9 9 9 9 9 9 9 8 8 9 9 10 10 9 9 9 9 9 9 9 9 8 8 8 7 7 7 7 7 7 7 7 6 6 6 6 7 7 7 7 7 7 7 7 7
9 9 9 9 9 9 9 9 9 9 9 9 9 9 9 9 9 10 10 10 10 10 10 10 10 10 10 10 10 10 10 10 10 10 10 10 10 10 9 9 9 9 9 9 9 9 9 8 8 9 9 9 9 9 9 9 9 9 9 9 9 9 9 8 8 7 7 7 7 7 7 7 6 6 6 6 7 7 7 7 7 7 7 7 8
9 9 9 8 8 9 9 9 9 9 9 9 9 9 9 9 9 10 10 10 10 10 10 10 10 10 10 10 10 10 10 10 10 10 10 10 10 10 10 9 10 9 9 9 9 9 9 9 8 8 8 9 9 9 9 9 9 9 9 10 9 9 9 9 8 7 7 7 7 7 7 7 7 6 6 6 7 7 7 7 7 7 7 7 8
9 9 9 8 8 9 9 9 8 8 8 8 9 9 9 9 9 10 10 10 10 10 10 10 10 10 10 10 10 10 9 9 9 10 10 10 10 10 10 10 10 10 9 9 9 8 8 8 8 8 8 9 9 9 9 9 9 9 9 10 9 9 9 9 8 8 7 7 7 7 7 7 7 7 6 6 6 7 7 7 7 7 7 7 8
8 8 8 8 8 8 8 8 8 8 8 8 8 8 9 9 9 9 9 10 10 10 10 10 10 10 10 10 10 9 9 9 9 9 9 10 10 10 10 10 10 10 9 9 9 8 7 7 7 7 8 8 7 8 9 9 9 9 9 10 10 9 9 9 8 8 8 7 7 7 7 7 7 7 6 6 6 7 7 7 7 7 7 7 8
8 8 8 8 8 8 8 8 8 8 8 7 8 8 8 8 9 9 9 9 9 10 10 10 9 9 9 9 9 9 9 9 9 9 9 9 9 9 10 10 10 10 9 9 8 7 7 7 6 6 7 7 7 7 8 8 9 9 10 10 9 9 9 9 8 8 8 7 7 7 7 7 7 7 6 6 6 6 7 7 7 7 7 7 8
8 8 8 8 8 7 8 8 8 8 7 7 7 8 8 8 8 8 9 9 9 9 9 9 9 9 9 9 9 9 9 9 9 9 9 9 9 9 9 9 9 9 9 8 7 7 6 6 6 6 6 6 7 7 8 8 9 10 9 9 9 9 8 8 9 8 8 7 7 8 7 7 7 7 6 6 6 6 6 6 7 7 7 7 8
7 8 8 8 7 7 7 7 7 7 7 7 7 7 8 8 8 8 8 8 8 8 9 9 9 9 9 9 9 9 9 9 9 9 9 9 9 9 9 9 9 8 8 7 7 6 6 6 6 6 6 6 7 7 8 9 9 9 9 9 9 8 8 8 8 8 8 8 7 8 7 7 7 7 6 6 6 6 6 6 7 7 7 8 8
7 7 7 7 7 7 7 7 7 7 6 6 7 7 7 7 8 8 8 8 8 8 8 8 8 9 9 9 9 9 9 9 9 9 9 9 10 10 9 9 9 8 8 7 7 6 6 6 6 6 6 6 7 7 8 9 9 9 9 8 8 8 8 8 8 8 8 8 8 8 8 7 7 7 6 6 6 6 6 6 6 7 7 8 8
7 7 7 7 7 7 7 7 7 7 6 6 7 7 7 7 7 7 7 7 7 7 8 8 8 8 8 9 9 9 9 9 9 9 9 9 10 10 10 9 9 9 8 8 7 7 7 6 6 6 7 7 8 8 9 9 9 9 9 8 8 8 8 8 8 8 8 8 8 8 8 7 7 7 6 6 6 6 6 6 6 6 7 7 7
7 6 6 6 6 6 6 6 7 6 6 6 7 7 7 7 7 7 7 7 7 7 7 7 7 7 7 8 8 8 9 9 9 9 9 9 9 9 9 9 9 8 8 8 8 7 7 7 7 7 8 8 9 9 9 9 9 9 9 8 8 8 8 8 8 8 9 8 8 8 8 7 7 7 6 6 6 6 6 6 6 6 6 6 7
6 6 6 6 6 6 6 6 6 6 6 6 7 7 7 7 7 7 7 7 7 7 7 7 7 7 7 7 8 8 8 8 8 9 9 9 9 9 9 8 8 8 8 8 8 8 7 8 8 8 8 9 9 9 9 9 9 9 9 9 9 8 8 8 8 8 8 8 8 8 8 8 7 7 7 6 6 6 6 6 6 6 6 6 6
6 6 6 6 6 6 6 6 6 6 6 7 7 7 7 7 7 7 7 7 7 6 6 6 6 7 6 6 7 7 8 8 8 8 9 9 9 9 9 9 8 8 8 8 8 8 8 9 9 9 9 9 9 10 9 9 9 9 9 9 8 8 8 8 8 7 7 8 8 8 8 8 8 7 7 6 6 6 6 6 6 6 6 6 6
6 6 6 6 6 6 6 6 6 6 7 7 7 7 7 7 7 7 7 7 7 6 6 6 6 6 6 6 6 7 7 7 7 8 8 9 9 9 9 9 9 8 8 8 8 9 9 9 9 9 9 9 9 9 9 8 8 9 9 7 7 8 8 8 7 7 8 8 8 8 8 8 8 8 7 7 6 6 6 6 6 6 6 6 6
6 6 6 6 6 6 6 6 6 7 7 7 7 7 7 7 7 7 7 7 7 6 6 6 6 6 6 6 6 6 6 6 7 7 7 8 8 8 8 9 9 8 7 7 8 8 9 9 9 9 9 9 8 8 8 7 7 8 8 7 7 7 7 7 7 7 8 7 7 8 8 8 8 8 8 8 7 6 6 6 6 6 6 6 6
Height
784 782 780 779 777 775 773 771 769 767 765 763 761 758 756 754 752 750 748 746 743 741 739 737 736 734 732 730 728 726 724 722 720 718 717 715 713 711 710 708 707 706 705 704 703 703 702 702 702 703 703 702 702 702 702 703 703 703 704 704 705 705 706 708 709 710 711 713 714 715 716 716 717 720 722 724 725 728 730 731 733 735 736 738 740
784 783 781 779 777 775 773 771 769 767 765 763 761 758 756 754 752 750 748 745 743 741 738 736 735 733 731 729 727 725 723 722 720 718 716 714 712 710 708 707 705 704 703 702 701 700 700 700 700 700 700 700 700 700 701 701 701 702 702 703 704 704 704 705 706 707 709 710 712 713 714 714 715 717 720 721 723 725 726 729 731 733 734 736 738
785 783 781 779 777 775 773 771 769 767 765 763 761 758 756 754 752 750 748 745 743 741 738 736 734 732 730 728 726 724 723 721 719 717 715 713 711 709 707 705 704 702 701 700 699 698 698 698 698 698 698 698 698 698 699 699 700 700 701 701 702 702 702 703 704 705 707 708 709 711 712 712 713 715 717 719 721 722 724 726 728 730 732 734 737
786 784 781 780 777 775 774 771 769 767 765 762 760 758 756 754 752 750 747 745 742 740 738 736 733 731 729 728 726 724 723 721 719 717 714 712 710 708 706 704 702 700 699 698 697 697 696 696 695 695 695 696 697 697 696 697 698 698 699 699 700 700 700 700 702 703 705 706 708 709 709 710 712 713 716 717 718 720 722 724 725 728 730 733 735
786 784 782 780 778 776 774 772 769 767 764 762 760 758 756 753 751 749 747 744 742 739 737 735 733 731 729 727 726 724 722 720 718 716 713 711 709 706 704 702 700 698 697 696 696 695 694 693 693 693 693 693 694 695 695 694 695 696 697 697 698 699 699 699 700 702 703 705 706 707 708 709 710 712 714 715 716 718 720 721 723 726 728 731 733
787 785 783 781 779 776 774 772 769 767 764 762 759 757 755 753 750 748 746 744 741 739 736 734 733 731 729 728 726 725 723 720 717 715 712 710 707 705 703 700 698 696 695 694 693 693 692 692 691 691 691 691 692 693 693 692 693 694 694 695 696 697 697 697 699 700 701 703 704 705 707 707 709 711 712 714 715 716 718 719 721 723 726 729 731
788 786 784 781 779 777 774 772 769 767 764 762 759 757 755 753 750 748 745 743 741 739 737 735 733 731 729 728 727 725 723 720 717 714 711 709 706 704 701 699 697 695 693 692 691 691 690 690 690 689 689 689 690 691 691 690 690 691 692 693 694 695 695 696 697 698 699 700 702 703 705 706 708 710 711 712 713 715 716 717 720 722 724 726 729
788 786 784 782 780 777 775 772 770 767 764 762 759 757 755 753 751 748 745 743 741 739 737 735 733 731 730 729 728 727 724 721 718 715 712 708 706 703 700 698 696 694 693 691 689 688 688 688 688 688 687 687 687 688 688 688 688 689 690 691 691 692 693 693 695 696 697 698 700 701 703 704 706 709 710 711 713 713 714 716 718 721 722 725 728
789 787 785 782 780 778 775 773 770 767 764 762 759 757 755 753 751 748 746 743 741 739 737 735 733 732 731 730 729 728 725 722 719 716 713 709 706 703 700 698 696 694 692 690 688 687 686 686 686 686 686 685 685 686 686 686 686 687 688 688 689 690 691 692 693 695 696 697 699 700 702 703 705 707 709 711 713 714 714 716 718 721 723 726 729
790 788 785 783 781 778 776 773 770 768 765 762 760 758 756 753 751 749 747 744 742 740 738 736 734 732 731 731 731 730 727 724 720 717 713 710 707 704 701 698 695 693 691 690 688 686 685 685 684 684 684 684 684 684 684 684 685 685 686 687 688 688 690 691 692 694 695 697 698 700 701 702 704 706 708 711 713 714 715 718 720 723 725 727 729
790 788 786 783 781 779 776 774 771 768 765 763 760 758 756 754 752 749 748 745 743 741 739 736 734 733 732 732 732 730 728 725 721 718 715 712 709 706 702 699 696 693 691 689 687 686 685 684 683 683 683 682 682 682 682 682 683 683 684 685 686 687 688 690 691 692 694 697 698 700 701 702 704 706 709 712 713 713 715 718 722 724 726 728 730
791 789 786 784 782 779 777 774 772 769 766 764 761 759 757 755 752 750 748 746 744 742 740 737 735 734 733 732 732 730 728 726 723 720 717 714 711 708 704 700 697 694 692 689 687 686 685 684 683 683 682 681 681 680 680 680 681 681 682 683 684 685 687 688 690 691 693 696 699 701 703 704 705 707 710 713 713 714 717 720 722 725 727 729 730
791 789 787 785 782 780 778 775 772 770 767 765 763 761 758 756 753 751 748 746 745 743 741 739 737 735 734 733 732 731 730 728 725 723 720 717 714 710 706 703 700 696 693 691 688 686 685 684 683 683 681 680 679 678 678 679 679 680 681 682 683 684 686 688 689 691 693 696 698 702 705 707 708 709 711 714 715 717 721 722 724 726 728 730 731
792 790 788 785 783 781 779 776 773 771 769 766 764 761 759 757 754 751 750 748 747 745 743 741 740 740 738 735 733 732 731 729 727 725 723 720 717 713 710 707 703 700 696 693 690 688 687 685 684 682 681 679 678 677 677 678 678 679 680 681 682 684 686 688 690 691 694 696 698 703 706 708 710 712 714 715 716 719 722 725 726 728 729 730 731
793 791 789 786 784 782 780 778 775 772 770 768 765 762 760 758 755 753 751 749 748 747 745 744 743 742 740 738 736 734 731 730 729 728 726 724 720 716 714 710 708 704 699 696 694 692 689 687 685 683 681 679 679 677 677 677 678 679 680 680 682 685 686 688 689 691 695 698 700 703 707 708 710 714 716 717 717 719 723 727 728 728 728 729 730
794 792 790 788 786 784 781 779 776 774 772 769 767 764 761 759 757 755 753 751 749 748 747 746 746 743 741 740 738 736 735 734 733 732 729 726 723 720 717 714 711 707 703 701 699 696 693 689 686 683 682 681 680 678 677 677 677 678 679 680 682 684 688 690 690 692 697 700 702 705 707 709 712 716 718 718 719 720 725 728 728 728 728 728 729
795 793 791 789 787 785 783 780 778 776 773 771 768 766 763 761 759 757 755 753 751 749 748 748 747 746 744 742 740 739 740 738 736 734 732 729 727 724 720 717 714 711 708 706 703 700 696 691 687 685 684 683 682 681 680 680 680 679 679 682 683 684 688 692 693 696 699 701 705 707 709 711 714 718 719 720 721 723 726 728 728 728 728 728 729
796 794 792 790 789 786 784 782 779 777 775 773 770 768 765 763 761 759 757 755 753 751 750 749 749 748 746 745 744 744 743 740 738 737 735 732 730 727 723 721 718 715 712 709 707 704 699 694 691 689 688 687 686 685 685 685 686 684 683 686 687 687 690 693 696 699 701 704 707 708 710 713 716 719 722 723 724 725 727 728 728 728 728 729 729
797 795 794 792 790 788 786 784 781 779 777 775 772 770 768 766 764 761 759 757 755 754 753 752 751 750 749 748 747 746 744 742 741 741 740 736 732 729 727 725 722 718 716 715 712 708 702 698 695 693 692 691 690 689 690 691 691 691 691 692 691 692 693 696 699 700 703 706 708 710 712 715 718 722 724 725 725 726 727 728 728 728 729 729 730
798 797 795 793 791 789 787 785 783 781 779 777 775 772 770 768 765 763 761 759 757 757 756 754 753 753 752 750 749 748 747 745 745 744 744 741 737 732 730 728 725 722 721 719 716 712 707 703 701 699 697 695 695 695 696 696 695 696 698 698 697 697 697 698 702 703 705 708 710 713 715 717 720 722 724 725 726 726 727 728 728 729 729 730 730
799 798 796 794 793 791 789 787 785 783 781 779 777 775 773 770 768 765 763 762 761 760 759 758 757 756 755 753 752 751 749 748 747 746 745 744 742 737 734 731 728 725 724 723 720 716 713 709 707 705 702 701 701 701 701 700 699 701 703 704 703 701 701 703 705 707 709 711 713 715 716 718 721 722 724 726 726 727 727 728 729 729 729 730 730
801 799 798 796 794 793 791 789 787 785 784 782 779 777 775 773 771 768 766 764 763 763 762 761 760 759 757 756 754 753 752 751 750 749 747 746 745 742 739 735 733 731 728 726 724 721 718 715 712 710 709 708 707 706 706 705 705 707 708 710 708 705 707 709 709 711 713 714 715 716 718 720 722 724 725 727 727 727 728 728 728 729 729 730 730
802 800 799 797 796 794 792 791 789 787 786 784 782 780 778 776 773 771 768 767 766 765 764 764 762 761 760 759 758 757 756 755 754 752 751 749 748 745 742 739 737 736 733 731 729 726 723 720 718 717 716 714 713 712 711 711 712 712 713 713 712 711 712 713 713 714 716 717 718 719 722 724 725 726 727 728 728 728 728 728 728 729 729 730 731
803 801 800 799 797 795 794 793 791 789 788 786 784 782 780 778 776 774 772 770 769 768 767 766 765 764 763 762 762 761 759 758 757 755 754 753 751 749 746 743 741 739 737 735 732 730 727 724 723 723 721 720 719 717 717 717 718 717 717 717 716 716 717 718 718 718 719 721 722 723 725 727 727 728 728 729 729 729 729 729 729 729 729 730 730
804 802 801 800 799 797 795 794 793 792 790 788 786 785 783 781 779 777 775 774 772 771 770 769 768 767 766 765 764 763 762 760 759 757 755 754 753 751 748 746 745 743 741 739 736 734 731 729 728 727 725 724 723 722 721 722 722 721 722 721 720 720 721 722 722 721 723 724 725 727 728 728 729 729 729 730 729 729 729 729 729 729 729 730 730
805 804 803 802 800 799 797 796 795 794 792 790 789 787 785 783 781 780 778 777 776 774 773 772 771 770 769 768 767 765 764 763 761 760 758 757 755 754 752 749 748 746 744 743 741 739 736 735 733 732 730 729 727 727 727 727 727 727 728 726 725 725 726 725 726 726 726 727 728 729 730 730 730 730 730 730 730 730 730 729 729 729 729 729 729
806 805 804 803 802 800 799 798 797 795 794 792 791 789 788 786 784 782 781 780 778 777 775 774 773 772 771 770 769 768 767 765 764 762 761 760 759 758 756 754 752 749 747 746 745 744 743 741 739 736 735 734 733 733 733 732 732 732 732 730 729 731 731 729 729 729 729 730 731 732 732 731 731 731 731 731 731 731 730 730 730 730 729 729 729
807 806 805 804 803 802 800 799 798 797 795 794 792 791 789 787 786 784 783 782 781 779 778 777 776 775 774 772 771 770 769 767 766 764 763 762 761 759 758 758 757 754 752 749 748 748 747 745 743 742 741 740 739 738 738 737 736 736 735 733 733 734 734 733 732 731 731 733 733 734 734 733 733 733 733 733 733 732 731 731 730 729 729 728 728
808 807 806 805 804 803 801 800 799 798 797 795 794 792 791 789 788 786 785 783 782 781 780 779 778 777 776 774 773 772 771 769 767 765 763 762 761 760 759 758 758 758 757 754 752 751 750 749 748 747 746 745 744 743 742 740 740 740 738 737 737 737 737 736 735 734 734 734 735 735 735 735 734 734 734 734 733 732 731 730 729 729 728 728 728
809 808 807 806 805 804 802 801 800 799 799 797 796 795 793 792 790 788 787 785 784 782 781 781 780 779 777 775 774 772 771 769 767 765 763 762 761 760 759 758 758 758 758 757 755 753 752 751 751 751 750 749 748 746 745 744 744 743 741 740 741 741 740 739 738 737 736 736 736 736 736 736 735 735 735 734 733 732 731 730 729 729 728 728 728
810 809 808 807 805 804 803 802 802 801 800 799 798 796 795 793 792 790 789 787 786 784 783 782 781 780 778 776 774 772 771 769 768 766 764 763 761 760 759 758 758 758 758 758 757 755 754 753 753 753 752 752 751 750 749 748 747 746 745 745 745 745 744 743 742 740 739 738 738 737 737 737 737 736 736 735 734 733 731 730 729 729 728 728 728
811 810 809 808 806 805 804 803 803 802 801 800 799 798 797 795 794 793 791 789 788 787 786 784 783 781 779 777 776 774 773 771 769 767 766 764 763 761 759 758 758 758 758 758 757 756 755 754 754 754 754 754 754 753 752 752 751 751 750 749 749 747 746 746 745 744 743 742 741 740 739 738 738 738 738 736 735 733 732 730 729 729 728 728 728
812 811 810 809 807 806 805 804 804 803 802 801 801 800 798 797 796 795 793 792 790 789 788 787 785 783 782 780 779 777 775 773 771 769 767 766 764 762 760 759 758 758 758 758 758 757 757 756 755 755 755 755 756 756 755 755 754 754 753 752 751 749 749 748 748 748 747 744 743 742 741 741 741 740 739 737 735 733 732 731 730 729 728 728 728
813 812 811 810 809 808 806 805 805 804 803 802 802 801 800 799 798 797 796 794 793 792 790 789 787 786 784 783 782 780 778 776 774 771 769 768 766 764 762 761 760 759 758 758 758 758 758 757 757 757 757 757 757 758 757 757 757 757 756 755 754 752 752 751 751 750 748 746 745 745 744 744 743 742 741 739 736 734 733 732 731 730 729 729 729
815 814 813 812 810 809 808 806 806 805 804 803 803 802 801 801 800 799 798 797 795 794 792 791 790 788 787 785 783 782 780 778 776 774 772 770 768 767 765 763 762 761 760 759 758 759 759 759 758 758 758 758 758 759 759 759 759 759 758 757 757 756 755 754 753 752 750 749 749 748 747 747 745 744 742 741 738 736 735 734 732 731 730 730 730
816 815 814 813 812 810 809 808 807 806 805 805 804 803 803 802 801 800 799 798 797 796 795 793 792 791 789 787 786 784 783 781 779 776 774 772 771 769 768 766 765 763 762 761 760 760 759 759 759 759 759 759 759 760 760 760 760 759 759 759 758 758 757 756 754 753 753 752 752 751 750 749 748 746 744 742 740 738 736 735 734 733 732 732 732
817 816 816 815 813 812 810 809 808 807 807 806 805 805 804 803 803 802 801 800 799 798 797 795 794 793 791 790 789 787 785 784 782 780 778 775 773 771 770 768 767 766 765 763 762 761 760 760 761 760 760 760 760 761 761 761 761 760 760 759 759 759 758 757 757 756 756 755 755 754 752 751 749 748 746 744 742 739 738 737 736 736 735 734 734
818 817 817 816 815 813 812 811 810 809 808 808 807 806 805 805 804 803 802 801 801 800 798 797 796 795 793 792 791 789 788 786 785 783 781 779 777 774 773 771 770 768 767 765 764 763 763 763 763 762 761 761 761 762 762 762 762 761 761 760 760 760 760 760 760 759 759 758 757 756 754 753 751 750 748 746 743 741 740 739 739 738 738 737 737
819 819 818 817 816 815 815 813 812 812 811 809 809 808 807 806 805 805 804 803 802 801 800 799 798 797 795 794 793 791 790 789 787 786 784 782 780 778 776 774 773 771 769 768 767 766 765 765 765 764 764 763 763 763 763 763 762 762 762 762 762 762 762 762 762 762 761 760 759 758 756 754 752 750 749 747 745 744 743 742 741 741 740 740 740
820 820 819 819 818 817 817 816 815 814 812 811 810 809 809 808 807 806 805 804 803 803 802 801 800 799 797 796 795 793 792 791 790 788 786 785 783 781 779 777 775 773 772 771 769 768 767 766 766 766 765 765 764 764 764 764 763 764 764 764 764 764 763 763 763 763 762 761 760 759 757 755 753 752 750 749 748 746 745 744 744 744 743 743 743
821 821 820 820 820 819 818 818 817 816 814 813 812 812 810 809 808 807 806 805 804 804 803 802 801 800 799 798 797 795 794 793 792 790 789 787 785 783 781 780 778 776 774 772 771 770 769 768 768 768 767 766 766 766 765 765 765 765 764 764 765 765 765 764 764 764 763 762 761 759 757 756 755 753 752 751 750 749 747 747 747 747 747 746 745
822 822 822 821 821 821 820 819 818 817 816 815 815 814 812 811 810 809 808 807 806 805 804 803 802 801 800 799 798 797 796 795 793 792 790 789 787 785 784 782 780 778 776 774 773 772 771 770 770 770 769 768 768 767 767 766 766 766 765 765 765 766 765 764 764 764 763 762 761 759 758 758 756 755 754 753 752 751 750 750 750 750 750 749 747
823 823 823 822 822 822 821 821 820 819 818 817 817 816 814 813 812 811 809 808 807 806 805 804 803 802 801 801 800 799 798 796 795 794 792 791 789 788 786 784 782 780 779 777 776 774 773 773 772 771 771 770 769 768 768 767 767 766 766 766 766 766 765 764 764 765 764 763 761 760 760 760 759 758 757 756 755 754 753 753 752 752 752 751 749
824 824 824 824 823 823 823 822 822 821 820 819 819 818 816 815 814 812 811 810 809 808 807 806 805 804 803 802 801 800 799 798 797 796 794 793 791 790 788 786 784 783 781 780 778 777 775 774 774 773 772 771 770 769 768 768 767 767 767 766 766 765 765 765 765 766 765 764 762 761 762 762 761 760 759 759 759 757 756 756 754 754 753 752 750
825 825 825 825 824 824 824 824 823 823 822 821 820 819 818 817 816 814 813 812 810 809 808 807 806 805 804 804 803 802 801 800 799 798 796 795 793 792 790 788 786 785 783 782 781 779 777 776 775 774 774 773 772 771 770 769 769 768 768 767 767 766 766 767 767 767 766 765 763 762 763 764 764 762 762 762 762 760 759 758 756 755 754 753 752
826 826 826 826 826 826 825 825 825 824 823 823 822 821 820 819 818 816 815 814 812 811 810 809 808 807 806 805 804 803 803 802 800 799 798 797 795 794 792 790 788 787 785 784 783 781 780 778 776 776 776 775 774 773 772 771 770 770 769 768 768 768 768 767 768 767 766 766 765 763 765 767 766 765 765 765 764 763 761 760 758 757 756 755 753
827 827 827 827 827 827 827 827 826 826 825 825 824 823 822 821 820 819 817 816 814 813 812 811 810 809 808 807 806 805 804 803 802 801 800 799 797 796 794 792 791 789 788 786 786 784 783 780 779 778 778 777 776 775 774 772 771 770 769 769 769 768 768 768 768 768 767 767 766 765 767 769 768 767 767 767 766 765 763 762 761 759 757 756 754
829 829 829 829 829 828 828 828 827 827 827 826 825 825 824 823 822 820 819 818 816 815 814 813 812 810 810 809 808 807 806 805 804 803 802 800 799 797 796 795 794 792 790 789 789 788 786 784 782 781 780 779 778 776 775 773 772 771 770 770 769 769 769 769 769 769 768 768 768 768 769 770 770 769 769 769 767 766 765 764 763 761 759 757 756
830 830 830 830 830 830 830 829 829 829 828 828 827 826 826 825 824 822 821 819 818 817 815 815 813 812 811 810 809 808 807 806 805 804 803 802 800 799 797 796 795 794 793 792 791 790 788 786 785 784 782 781 779 778 776 774 773 772 770 770 770 770 769 769 770 770 770 770 770 770 770 771 770 770 770 770 768 767 767 766 764 763 761 759 757
831 831 831 831 831 831 831 831 830 830 830 829 829 828 827 826 825 824 823 821 820 819 817 816 815 814 813 812 811 810 809 808 807 806 804 803 801 800 799 797 796 795 794 793 792 791 790 788 787 785 783 782 780 779 777 776 774 773 771 771 771 771 770 770 771 771 771 772 772 772 772 771 771 771 770 770 770 769 768 767 766 764 762 761 759
832 832 832 832 832 832 832 832 832 831 831 831 830 829 829 828 827 826 825 823 822 820 819 818 817 816 815 814 813 812 811 810 809 807 806 804 803 801 800 799 797 797 796 795 794 792 791 789 788 786 785 784 782 781 779 778 776 775 774 773 772 772 772 772 772 772 773 773 773 773 772 772 772 771 770 770 770 771 770 768 766 765 764 763 762
Wind_Speed
22 20 19 19 20 21 22 22 23 24 24 24 25 27 27 27 27 25 25 26 25 24 23 22 21 20 19 20 20 20 18 16 16 15 14 14 14 13 13 13 13 14 15 15 16 16 16 16 15 16 17 15 13 11 11 11 11 13 14 13 12 14 16 18 19 19 18 19 20 21 24 27 26 26 25 27 28 27 27 28 28 28 26 25 25
20 19 20 21 21 22 23 24 24 25 25 25 25 26 27 27 25 24 25 25 25 24 23 23 22 21 20 20 20 19 17 17 16 16 16 16 15 14 13 13 13 13 13 14 15 14 14 16 17 17 17 15 13 13 13 11 11 11 12 13 13 13 15 16 17 18 18 18 19 20 22 25 26 26 24 26 28 28 28 28 27 27 27 26 26
19 19 21 21 22 23 24 25 25 25 25 24 24 25 26 27 25 23 24 23 23 24 24 23 23 22 21 20 19 17 17 18 18 17 17 18 17 16 14 14 13 13 13 12 12 12 12 13 14 15 17 16 14 13 13 12 10 10 10 11 13 14 14 15 16 17 17 17 18 19 21 23 24 24 24 25 27 29 28 28 28 27 27 26 26
19 20 21 22 22 23 24 25 25 24 24 24 25 24 24 26 26 24 24 23 23 24 24 23 23 23 21 19 18 17 18 20 20 19 19 20 19 18 17 15 15 14 14 13 12 12 12 12 11 12 15 16 16 14 13 12 10 10 10 11 13 14 15 15 16 16 16 16 18 18 20 21 21 22 23 24 26 28 28 28 29 28 27 27 27
20 21 21 21 22 23 24 24 24 24 23 24 24 24 25 25 25 25 25 24 22 23 24 24 24 23 20 18 17 17 19 21 22 21 21 21 20 19 19 18 16 16 16 16 15 14 13 12 12 12 12 13 15 15 13 13 12 11 11 12 13 14 15 16 16 15 15 16 17 17 18 19 20 21 22 23 25 27 27 27 28 28 28 28 26
20 20 20 21 22 23 24 24 24 24 24 24 24 25 25 24 25 25 26 24 21 21 23 24 24 21 18 17 17 18 21 23 24 23 22 22 21 20 20 19 18 17 17 17 17 17 15 14 13 13 13 12 12 14 14 14 14 14 14 14 14 14 14 15 15 15 16 17 16 16 17 19 19 19 20 22 23 25 25 26 27 28 28 27 25
20 20 20 21 22 23 23 24 24 25 25 25 25 26 25 24 25 25 25 22 19 20 22 22 22 19 16 16 17 20 24 25 25 24 23 22 21 20 20 19 18 18 17 16 17 18 17 17 16 15 15 13 11 13 13 12 13 15 16 15 14 14 14 14 15 15 15 16 16 15 16 18 18 18 18 20 22 25 27 28 27 26 27 27 25
19 19 20 21 22 22 23 25 25 26 26 26 26 26 24 24 25 24 23 21 19 20 22 22 21 17 15 15 18 22 25 25 25 24 22 21 22 20 18 18 17 15 14 15 16 17 17 17 17 17 17 16 13 13 13 13 13 15 16 16 14 14 15 16 16 15 14 14 16 16 16 17 17 16 17 18 18 21 25 26 23 24 25 23 20
19 19 20 20 21 22 23 25 26 26 26 26 26 26 24 24 23 22 22 21 19 19 21 22 19 15 14 15 20 24 25 25 24 23 22 21 23 21 17 17 17 13 13 14 14 14 14 14 15 16 16 17 16 15 14 14 14 14 15 15 14 15 16 16 15 14 13 13 14 15 14 15 15 14 14 14 12 15 18 20 20 20 18 15 15
19 19 19 20 20 22 23 25 26 27 27 26 26 26 26 26 21 18 19 20 19 18 20 20 17 15 14 15 20 23 24 26 26 23 24 24 24 25 23 21 19 16 13 13 12 11 10 10 10 11 13 14 14 13 13 14 14 13 14 13 13 14 15 15 14 13 13 12 13 12 12 14 15 15 16 17 19 21 19 16 13 12 12 13 14
19 19 19 19 20 22 24 25 27 27 27 26 27 27 26 27 21 16 18 19 18 18 20 19 15 13 14 14 16 22 26 29 31 29 27 27 25 27 30 27 24 22 19 15 11 8 7 7 6 7 10 11 11 12 13 14 13 13 13 13 13 14 14 14 14 14 14 13 12 11 13 18 20 22 22 20 20 18 15 13 12 12 14 15 15
20 19 18 19 21 23 24 26 28 28 28 26 27 26 25 27 22 18 19 18 17 20 22 20 16 13 12 13 14 19 28 32 33 33 32 31 29 30 34 33 30 28 26 23 18 13 8 5 4 5 6 7 8 11 14 13 12 13 13 12 14 16 16 15 13 14 15 15 14 15 18 23 24 24 22 19 18 16 16 16 16 15 15 16 15
20 18 18 20 22 23 25 27 28 28 27 26 26 25 25 27 24 19 19 18 17 21 23 21 17 13 10 14 15 15 23 31 33 33 33 33 32 34 35 35 35 34 31 29 27 23 17 13 11 7 4 2 5 8 9 9 10 10 10 11 14 16 15 14 14 16 20 22 23 22 22 23 23 23 23 22 20 18 18 17 17 16 15 14 13
19 17 18 21 22 24 25 27 28 28 27 26 27 26 26 27 26 22 19 17 15 18 23 20 14 11 7 8 12 11 15 26 32 32 32 32 33 35 35 35 36 35 34 34 32 29 24 22 21 17 14 9 3 2 3 7 8 7 9 12 15 15 15 19 23 26 26 27 28 25 23 23 22 22 21 22 22 20 18 16 16 15 13 12 11
18 17 19 21 23 24 25 26 27 27 27 27 27 28 27 27 27 24 20 17 15 15 20 18 13 12 6 3 5 6 8 16 25 30 29 30 33 34 34 36 35 35 39 39 35 31 28 27 28 27 25 22 17 10 4 5 7 8 10 14 15 15 19 28 31 30 28 26 26 25 23 22 21 20 19 19 20 19 16 14 14 13 12 11 9
17 18 19 21 23 24 25 26 27 27 27 26 26 28 27 26 26 25 21 18 15 15 18 18 16 13 6 3 3 3 6 7 11 22 28 30 32 33 34 37 37 38 40 39 37 32 29 32 35 34 33 30 29 25 17 9 4 9 13 16 21 25 27 30 31 32 30 27 26 25 24 23 21 20 18 18 18 18 15 13 12 11 10 9 7
17 18 19 21 23 24 25 26 27 27 26 26 26 27 27 26 26 25 23 20 16 15 17 18 18 16 10 4 3 2 5 5 4 13 24 27 28 31 34 37 37 37 38 39 39 35 31 35 40 40 38 36 34 32 29 23 15 16 21 22 29 35 33 31 31 30 30 29 27 25 24 22 20 19 18 18 17 16 14 12 11 10 8 8 6
17 18 19 21 23 24 25 26 26 27 26 26 26 27 26 26 26 25 24 22 20 17 18 19 18 18 16 11 9 7 4 5 3 5 13 21 25 29 32 34 36 37 38 39 38 37 36 37 41 43 42 40 38 35 33 30 26 25 29 29 30 33 32 30 30 30 30 30 27 25 23 22 20 18 17 17 16 14 12 10 10 9 8 7 6
17 18 19 21 23 24 25 26 26 27 28 28 27 27 27 25 25 25 23 23 24 20 20 21 17 17 19 17 16 15 11 9 5 2 5 13 20 25 27 30 34 37 37 37 36 38 41 39 40 44 44 43 43 40 36 32 29 28 25 25 29 31 31 30 28 29 29 28 27 25 23 22 20 17 16 14 13 12 11 9 9 8 7 7 6
17 17 19 22 23 24 25 26 27 28 28 28 28 27 28 27 26 26 25 25 24 22 22 21 17 17 20 19 18 19 19 17 13 7 3 6 11 17 22 26 32 35 34 35 37 39 41 40 40 42 43 44 44 43 40 36 35 32 25 22 25 29 31 30 28 27 26 25 25 24 22 21 18 16 14 12 11 10 9 9 8 7 6 6 4
16 17 19 21 22 23 25 25 26 27 28 28 28 28 28 28 28 28 28 26 24 22 22 21 19 18 19 19 18 18 19 19 19 13 7 6 6 8 13 18 24 32 34 34 37 38 38 39 39 41 42 43 43 43 42 41 39 36 30 25 26 29 29 29 28 26 24 23 23 22 21 19 17 15 13 11 10 9 8 8 7 6 5 4 3
16 17 18 20 21 22 24 24 25 26 27 27 28 28 28 27 28 29 28 27 26 24 22 21 21 21 21 20 18 16 14 13 15 14 9 7 7 5 8 11 12 21 30 32 35 37 37 38 39 40 40 40 41 41 41 41 39 35 30 27 28 31 31 29 28 27 25 24 23 22 20 17 15 14 11 10 9 7 6 5 4 4 3 3 2
16 16 18 19 20 21 22 23 25 26 27 27 27 27 28 28 29 30 29 28 26 25 25 25 23 23 22 19 18 16 13 10 11 12 9 6 7 5 7 11 9 13 24 28 30 35 36 37 39 38 37 37 37 37 37 39 37 33 30 28 27 28 26 26 27 26 26 24 23 21 19 16 14 12 10 9 8 7 6 5 4 3 3 2 1
16 16 17 18 19 20 21 22 25 26 27 28 28 28 28 29 30 30 30 28 27 26 25 25 25 24 22 19 19 18 17 16 14 13 12 9 7 4 5 10 9 12 22 25 26 32 34 35 36 36 36 36 35 34 33 35 35 33 32 30 28 26 22 19 21 23 23 22 20 18 16 14 13 11 11 10 8 8 7 6 5 3 2 2 1
16 16 17 17 18 19 20 21 23 24 26 27 27 28 28 28 29 29 29 28 27 27 25 24 24 24 23 22 23 23 22 23 22 21 20 18 12 6 6 9 7 8 18 23 23 26 31 34 33 33 36 36 34 34 32 31 31 31 32 32 31 29 26 22 20 21 20 19 18 17 15 15 13 13 12 10 9 8 7 6 5 3 2 1 2
16 15 14 15 16 17 18 19 20 21 23 24 24 25 26 27 27 27 27 27 26 27 26 25 24 24 24 24 25 25 24 25 25 24 23 20 15 10 7 8 7 6 12 19 21 20 23 29 30 31 34 35 33 33 31 29 28 27 28 31 32 31 30 28 25 23 21 20 19 18 16 16 15 14 13 11 10 9 8 7 6 5 4 3 3
13 13 12 12 14 15 16 17 18 19 21 22 22 22 22 23 24 24 24 25 25 26 25 24 23 23 22 22 22 22 21 21 21 21 20 17 16 14 10 6 6 5 6 12 16 16 19 24 27 28 31 33 32 30 28 28 27 25 26 29 30 29 28 28 27 26 26 23 21 19 18 17 15 14 12 11 11 10 9 8 6 5 4 4 4
12 12 11 11 12 14 15 16 17 19 20 21 22 22 22 22 22 22 21 21 22 23 22 21 20 20 19 18 18 18 18 18 18 17 17 15 14 15 13 8 5 4 4 6 7 11 18 21 21 24 26 29 31 29 27 27 27 27 28 29 29 28 27 25 24 25 26 24 20 19 17 16 16 14 13 12 11 11 10 9 7 6 5 3 4
12 12 11 10 11 12 13 15 17 18 20 21 22 22 22 23 23 22 20 18 17 18 18 18 17 16 16 15 15 16 16 16 17 16 16 15 14 14 13 9 6 3 3 5 4 5 13 16 16 17 20 23 27 29 28 27 26 27 28 30 30 29 28 27 24 22 22 21 19 19 18 17 17 16 15 14 14 13 13 12 10 8 6 3 4
11 11 11 10 11 11 12 14 15 17 19 20 21 21 22 23 24 23 21 18 16 16 16 16 16 15 15 16 16 17 17 17 17 17 16 16 15 14 11 9 7 4 1 3 3 5 9 12 13 12 14 18 22 26 28 27 25 26 28 29 29 28 28 27 26 24 22 21 20 20 20 19 18 18 17 16 16 15 14 13 11 8 5 4 3
11 11 11 11 11 11 11 13 14 16 18 19 19 20 21 23 24 24 23 21 20 20 19 18 18 19 19 21 22 22 22 21 20 19 18 18 16 15 12 9 7 4 2 1 1 5 10 10 10 10 11 13 17 21 24 26 25 25 27 27 25 25 25 25 28 29 27 24 23 23 21 20 20 19 18 17 16 15 14 12 10 8 5 4 4
11 11 12 12 11 11 11 12 13 15 17 17 18 19 20 22 23 24 24 24 24 24 23 22 22 23 24 24 25 24 24 23 22 20 20 20 19 17 15 12 10 7 5 3 1 4 11 10 8 9 9 11 14 17 20 23 25 25 25 25 25 27 26 25 28 30 29 28 26 24 23 22 21 20 19 19 18 17 15 13 10 8 6 5 4
11 11 12 13 12 11 11 12 13 14 15 16 16 17 18 20 21 23 23 24 25 25 25 25 25 25 25 25 25 25 25 25 23 22 21 21 21 20 18 16 15 11 9 7 3 3 10 13 10 9 8 9 12 13 16 19 22 23 23 22 24 27 28 27 28 29 29 29 28 26 24 22 21 20 21 22 21 20 18 16 12 10 8 7 6
11 12 13 14 13 13 12 12 12 13 14 15 15 15 17 18 19 21 22 23 24 25 25 25 25 25 26 26 26 26 27 27 25 24 23 22 22 22 21 19 17 15 11 9 7 4 7 13 12 8 7 8 9 10 12 15 17 19 21 21 22 23 24 25 26 26 28 29 28 27 26 23 21 20 21 23 23 22 20 18 15 12 10 9 9
11 12 14 15 16 15 15 14 13 13 14 14 14 14 15 16 17 18 19 21 22 23 24 24 24 25 25 26 27 27 28 28 28 27 25 24 23 23 22 20 18 17 14 11 10 7 7 11 13 10 6 5 7 8 10 12 13 14 17 18 19 20 20 22 23 25 26 26 26 26 25 24 23 21 21 22 24 22 20 19 18 15 14 13 13
11 12 13 14 16 16 17 17 15 14 14 13 13 13 14 14 15 16 16 18 20 21 22 22 22 22 23 24 25 26 27 28 29 29 28 27 26 24 23 22 20 18 16 15 13 12 11 11 13 12 7 6 7 7 7 8 9 11 13 13 15 17 18 20 22 23 24 23 23 23 23 23 22 22 22 21 23 22 20 20 20 19 17 17 18
11 11 12 14 16 17 18 18 17 16 14 13 13 13 13 13 13 14 14 15 16 18 20 20 20 20 21 21 22 22 24 26 26 27 28 28 28 26 24 23 21 19 18 18 17 17 17 15 13 13 10 7 7 6 4 5 6 9 10 11 12 14 16 17 18 20 20 20 21 21 22 23 22 22 22 22 23 23 20 19 20 20 19 18 18
10 11 12 14 16 18 18 18 18 17 15 14 13 12 12 11 11 12 12 13 14 16 17 18 17 18 18 19 19 19 20 22 23 24 26 27 27 27 26 24 22 21 20 19 18 18 19 17 15 14 13 9 5 4 3 1 3 6 8 10 11 13 14 14 14 16 17 18 19 19 21 23 22 22 23 24 25 23 20 19 19 19 19 18 18
10 11 12 14 16 17 18 18 18 17 16 15 14 13 12 11 11 11 12 12 12 13 15 15 15 15 16 16 17 17 17 18 20 21 22 24 25 25 25 24 23 22 22 20 19 18 18 18 17 15 13 11 8 5 2 1 2 4 6 7 9 11 12 12 13 14 15 16 18 18 20 23 24 24 25 25 25 23 21 20 20 18 18 18 17
10 11 11 12 14 16 17 18 17 17 16 16 15 13 12 11 11 11 12 12 12 13 13 13 13 13 13 13 14 14 15 15 17 18 19 21 22 22 23 23 23 24 23 21 20 19 18 18 16 14 14 13 10 9 6 4 4 5 5 5 6 7 10 12 13 13 14 17 17 17 20 24 23 24 26 26 26 24 22 21 21 18 16 16 16
10 10 10 11 12 14 16 17 17 17 17 17 16 14 12 12 11 11 12 12 12 13 13 12 12 12 12 12 12 12 12 13 14 16 17 18 19 20 21 22 23 23 23 22 21 18 16 15 13 12 13 12 10 9 8 8 7 6 4 5 6 7 9 13 14 13 14 17 17 17 21 23 21 21 25 27 26 24 22 21 20 18 15 14 15
9 9 9 9 10 13 15 16 17 17 17 16 15 13 13 12 12 12 12 13 13 13 13 13 13 13 12 11 11 11 11 12 13 15 16 17 18 18 20 21 22 22 22 22 21 18 13 11 10 9 9 9 8 8 8 8 6 4 3 4 6 7 8 10 12 12 13 15 16 17 21 22 20 20 24 26 25 23 21 20 19 17 14 12 12
9 9 8 8 10 12 14 15 16 16 16 15 13 13 12 12 13 13 13 14 14 14 15 15 15 14 13 12 11 11 11 12 12 13 14 15 16 17 19 20 21 21 21 20 19 16 11 9 10 10 9 8 8 7 7 7 7 6 5 5 6 7 6 7 7 8 11 13 14 17 20 21 19 19 22 24 24 22 20 18 17 15 13 12 12
9 9 9 9 10 11 12 14 15 15 14 13 12 12 12 13 13 13 14 14 15 16 17 17 17 15 14 13 12 12 12 12 11 12 12 13 14 15 18 20 20 21 21 20 18 16 12 10 11 12 11 9 9 9 8 8 8 8 8 8 7 8 8 8 5 5 9 11 13 16 19 20 19 19 20 21 22 21 18 16 16 15 13 12 13
10 10 10 10 10 10 11 13 13 13 12 12 12 11 12 13 13 13 14 15 16 17 17 18 18 17 16 14 13 12 12 11 10 11 11 11 11 12 15 18 20 21 22 22 21 20 17 13 13 14 13 11 11 11 10 8 8 9 10 10 10 8 8 8 6 4 8 10 12 16 19 20 19 18 18 18 19 20 19 17 16 15 14 13 13
11 12 11 11 11 11 11 11 11 12 12 11 11 11 12 13 13 14 15 15 16 17 17 17 18 18 17 16 15 13 12 11 11 10 10 10 10 11 13 17 19 20 22 23 23 22 22 20 19 18 17 15 13 12 10 8 6 7 9 9 9 9 9 9 7 5 8 9 10 14 16 18 18 17 16 16 16 18 19 18 17 16 15 14 14
12 12 12 12 12 11 11 10 10 11 11 10 10 10 11 12 12 13 14 15 16 17 17 17 18 18 18 16 15 14 13 12 12 11 10 9 9 10 13 16 18 19 21 23 22 22 22 24 24 23 22 21 17 13 10 6 5 5 6 7 8 10 12 11 8 8 9 10 12 13 12 13 16 16 15 15 15 16 17 17 18 17 16 17 16
12 12 12 12 12 11 11 10 10 11 11 10 9 9 10 11 12 13 14 14 16 17 17 17 17 18 18 17 16 15 14 14 13 11 9 8 7 9 13 15 16 17 18 20 20 20 21 24 25 26 25 23 21 19 14 9 5 3 4 7 8 10 11 10 9 10 9 9 11 12 10 8 11 14 16 16 16 15 15 16 16 17 18 19 18
11 11 11 11 11 11 10 11 11 11 10 10 9 9 9 10 11 13 14 14 15 16 16 17 17 17 18 17 16 16 15 15 13 11 10 8 8 9 11 13 14 14 15 16 16 18 20 22 23 23 23 23 23 22 20 16 11 8 7 8 8 8 9 8 7 8 10 9 7 6 6 4 6 9 14 17 18 17 15 15 15 16 17 20 20
11 11 10 10 10 10 10 11 11 11 10 10 9 9 9 10 10 12 13 13 14 15 15 15 15 16 16 16 16 16 16 15 14 12 11 10 10 10 11 12 13 14 13 13 12 13 15 16 17 18 20 22 23 24 22 19 17 16 15 12 8 6 7 6 3 4 8 11 8 3 2 4 7 6 6 10 15 18 16 15 16 15 15 17 19
10 9 8 9 10 10 10 10 10 10 10 10 9 9 10 10 10 11 11 12 14 14 13 14 14 15 16 16 16 16 16 15 14 13 12 11 11 12 11 11 13 14 12 12 11 11 12 13 15 17 20 22 23 24 23 21 19 18 18 15 11 8 7 7 6 3 3 7 9 5 3 5 7 8 6 4 6 13 17 17 17 17 16 17 18
Wind_Direction
17 19 23 23 22 20 18 16 14 12 8 6 3 359 358 357 357 354 352 351 350 349 347 343 343 343 341 336 334 334 335 338 338 338 337 333 329 320 312 305 296 289 281 276 274 277 277 272 266 261 260 262 264 266 265 269 274 273 273 268 258 252 247 242 239 236 233 233 235 234 232 230 227 225 226 227 224 221 221 222 223 219 213 214 215
19 23 22 19 18 18 17 14 13 12 9 7 5 2 358 355 355 353 351 351 350 351 349 344 344 344 342 340 342 344 346 348 347 344 341 336 331 323 315 306 298 290 284 277 271 273 279 271 260 257 257 256 254 256 263 272 278 275 269 265 260 255 252 244 239 237 233 233 234 233 231 230 227 225 224 226 224 220 220 222 221 219 216 214 213
20 20 18 16 16 16 15 13 11 11 10 7 6 3 358 354 353 350 349 348 348 353 352 346 345 347 347 348 351 355 358 359 355 350 346 341 335 327 317 305 297 291 286 283 272 267 279 278 259 251 254 256 254 249 254 264 275 278 270 264 260 258 255 247 240 237 235 233 235 235 232 230 228 225 223 223 223 221 221 222 219 219 219 215 214
20 17 15 14 14 13 13 12 10 10 9 7 5 3 359 356 353 349 349 348 346 352 353 347 347 351 353 357 1 5 7 6 1 356 352 348 341 334 325 312 299 290 284 282 277 268 270 274 265 255 251 253 256 250 247 254 268 277 271 265 259 256 256 252 243 237 234 234 238 237 231 227 225 225 224 222 223 222 222 223 222 224 222 215 216
19 16 14 13 14 13 11 12 11 10 9 6 4 3 360 355 350 347 348 347 346 351 353 350 351 355 360 4 8 11 11 8 4 359 354 349 344 337 328 319 306 293 282 277 275 271 268 263 260 263 260 257 257 255 250 252 262 271 271 267 259 253 254 252 244 236 234 235 239 239 231 225 223 224 224 223 223 224 225 224 223 223 218 213 212
19 16 14 14 14 13 12 12 12 11 9 7 5 3 0 353 347 346 348 348 345 348 351 350 353 359 6 11 14 15 12 7 2 357 352 347 344 341 334 326 315 302 288 278 272 268 268 264 256 256 261 264 261 260 258 254 259 264 269 270 260 250 247 244 237 231 231 231 235 238 231 225 224 223 222 223 225 228 226 221 219 217 211 206 199
19 16 15 16 14 13 13 13 11 9 8 8 7 3 1 354 349 348 347 348 348 350 352 350 353 2 11 17 19 17 12 6 2 357 352 348 347 345 341 336 327 317 303 287 276 268 265 263 259 254 256 263 266 267 263 256 257 259 262 266 259 245 237 231 227 227 229 229 230 232 228 223 220 219 221 225 227 229 224 217 213 205 197 193 188
18 17 17 17 15 14 15 13 10 8 8 11 9 5 360 355 354 353 347 347 351 353 353 352 357 8 19 25 24 19 14 9 5 3 358 354 354 351 344 342 336 326 317 305 290 277 267 260 258 257 257 261 264 267 267 259 254 253 254 257 252 238 229 225 223 224 225 226 225 224 223 219 214 215 223 228 230 227 216 202 186 173 172 175 178
17 17 18 17 17 17 16 12 10 11 13 14 11 5 1 357 355 356 354 351 354 356 352 352 2 18 27 31 28 23 18 14 11 8 8 7 7 4 357 353 351 339 326 324 315 297 282 267 259 259 259 260 260 263 268 262 254 252 249 250 245 233 226 221 217 216 216 216 215 218 218 212 210 209 208 206 188 170 165 158 146 145 157 166 171
16 16 16 17 20 20 16 13 14 15 16 14 10 7 4 2 356 355 360 358 358 356 350 353 9 24 29 34 35 31 26 22 20 16 14 14 14 16 17 16 14 6 346 334 327 318 310 293 275 268 264 262 263 263 265 260 254 252 244 241 235 223 218 212 206 203 201 199 199 210 208 196 189 174 164 160 151 144 142 142 145 155 168 171 164
15 15 17 19 22 21 19 18 19 18 16 13 11 9 6 4 0 358 5 4 2 359 355 1 16 27 31 38 44 38 32 29 27 23 21 19 17 19 25 28 28 25 16 5 353 347 342 325 306 290 277 270 264 259 259 253 249 247 238 232 223 210 204 197 194 190 186 185 186 190 177 164 155 144 142 146 145 143 145 149 156 156 155 156 154
14 16 18 23 24 23 21 21 22 20 15 11 9 8 5 4 2 2 7 6 5 6 6 12 22 29 30 33 46 44 35 31 29 26 25 24 22 24 30 32 31 31 32 30 28 33 31 9 343 319 296 281 267 258 255 243 235 238 231 223 212 202 193 187 191 190 179 169 162 157 153 146 139 134 136 139 135 132 135 139 141 139 140 145 150
14 17 22 27 26 25 24 24 23 20 16 13 12 10 10 8 4 6 10 6 4 9 10 14 22 21 12 11 24 38 36 33 30 26 26 27 27 29 32 34 33 32 35 37 37 40 45 52 58 57 58 328 276 265 256 231 224 232 226 214 199 190 183 174 171 164 152 142 136 135 135 133 128 129 130 128 125 125 129 130 132 138 143 147 151
17 23 28 29 28 27 28 27 25 21 18 18 17 14 13 13 9 9 13 10 6 8 11 16 17 358 333 343 1 17 34 34 29 26 26 27 30 32 31 33 34 32 35 38 38 38 41 53 64 67 71 70 51 286 240 210 214 220 205 191 178 174 168 157 148 139 132 127 127 127 125 123 121 123 126 126 125 124 126 130 135 142 147 146 149
25 30 33 32 30 30 30 30 27 23 19 18 18 15 14 14 13 12 14 14 13 14 16 17 9 348 324 304 343 356 22 29 26 23 24 27 31 33 31 31 33 34 37 36 33 33 35 47 59 61 64 66 65 68 97 179 206 201 182 171 161 160 158 149 139 131 125 122 123 123 121 119 117 119 123 125 123 122 126 135 137 139 141 142 144
32 33 35 35 33 32 31 31 29 27 23 20 19 18 17 16 15 15 15 13 9 15 22 19 15 12 359 314 311 348 17 14 16 19 24 29 31 31 32 32 32 34 38 35 31 29 32 45 55 56 59 61 62 66 73 85 157 174 165 159 147 139 136 132 124 120 120 118 117 117 116 116 116 118 122 122 120 121 129 134 131 130 134 138 140
36 35 37 38 36 35 33 32 31 30 26 23 22 23 23 21 20 20 19 17 8 8 21 25 28 32 28 7 344 10 14 350 348 20 25 29 30 31 34 35 33 34 36 34 32 29 30 43 51 53 54 56 60 65 69 72 83 114 128 134 132 127 121 115 113 114 114 114 116 115 114 113 115 117 118 119 119 122 128 130 125 124 127 132 138
39 37 39 40 38 37 36 35 35 33 29 28 27 27 27 24 25 27 24 22 21 17 22 28 34 37 37 39 43 45 13 344 344 18 22 27 30 31 34 35 35 34 34 32 30 29 30 39 47 50 51 53 56 60 65 70 73 89 108 116 115 116 115 113 113 114 115 117 117 113 110 110 110 112 113 115 119 122 125 124 124 125 127 132 136
41 40 41 42 41 40 39 39 40 37 34 33 30 28 30 29 31 35 32 29 31 32 31 31 32 35 38 44 48 49 44 32 27 348 8 24 25 27 31 35 37 34 31 30 30 32 33 36 43 47 48 51 54 56 59 63 67 75 91 107 112 113 113 113 114 115 115 115 113 110 110 110 108 110 112 115 118 119 121 122 124 127 130 132 131
43 43 43 43 43 43 42 43 43 41 38 37 34 32 33 35 37 41 41 37 36 39 39 38 35 30 34 40 43 44 46 43 37 29 24 21 16 21 25 30 37 34 29 29 31 34 35 35 41 45 46 49 53 55 53 53 61 68 69 84 102 108 107 108 108 109 109 108 109 110 110 109 110 112 113 114 115 116 120 125 126 123 124 124 120
46 46 46 45 45 47 47 46 45 44 43 42 41 40 38 37 38 42 44 42 41 42 42 42 42 37 35 36 37 38 40 38 34 30 27 26 18 13 11 20 32 30 26 29 32 35 37 38 41 45 47 49 51 54 52 50 57 63 63 66 80 90 95 100 102 101 104 106 107 107 106 108 110 109 108 108 109 110 116 121 122 118 115 115 111
47 48 47 47 48 50 51 48 47 47 46 45 45 44 43 40 40 43 45 44 43 44 45 45 45 44 42 40 39 37 37 35 31 25 18 21 20 4 357 6 21 22 22 27 30 34 38 40 42 44 46 48 51 53 52 52 57 62 64 63 68 77 81 86 92 92 92 94 94 92 91 95 98 98 99 100 100 103 109 111 112 112 112 117 121
47 48 48 48 50 53 53 50 49 49 48 47 46 46 46 45 45 46 46 46 44 45 49 51 50 46 43 43 44 42 42 41 33 27 23 15 9 5 356 359 6 13 17 24 31 34 35 38 41 42 43 47 52 56 55 54 57 63 66 63 64 70 73 75 79 81 80 80 81 81 80 82 86 88 91 91 91 93 93 89 91 100 112 125 141
48 48 47 46 48 53 54 52 50 50 49 48 48 49 49 48 48 49 49 49 48 46 47 51 53 50 47 48 49 48 47 45 41 35 32 22 12 7 351 0 9 9 14 23 30 32 33 35 37 39 42 46 51 57 58 56 56 59 63 63 63 67 72 75 75 75 75 76 77 79 80 83 87 87 87 87 86 86 83 80 83 90 102 115 118
46 47 46 44 46 50 53 51 50 50 51 50 49 49 50 50 49 49 50 50 50 49 48 49 52 53 55 57 56 54 51 47 43 38 33 27 21 12 360 11 15 1 12 21 25 29 33 34 36 39 43 46 51 56 59 59 57 56 59 63 64 66 71 77 81 83 83 84 85 86 84 84 85 84 81 80 79 76 73 72 71 75 87 93 88
47 47 47 46 47 51 53 52 50 49 50 50 48 48 48 50 50 49 50 51 51 52 53 53 55 57 61 63 61 57 50 45 41 37 33 28 22 14 2 8 14 5 9 18 24 27 29 32 37 42 44 48 53 57 59 62 62 58 58 62 65 65 67 69 74 80 84 86 85 82 80 77 75 73 71 70 69 64 63 62 60 63 69 77 82
50 50 50 49 50 52 54 52 49 47 46 44 43 43 43 46 49 50 51 52 54 55 55 56 56 57 62 63 61 53 42 36 34 32 30 28 25 24 23 11 4 7 5 11 22 27 26 31 39 43 47 50 55 59 62 65 67 64 62 64 64 63 63 65 67 71 71 71 73 72 70 69 68 66 65 63 61 57 56 56 57 60 64 88 92
53 52 52 52 51 53 53 51 48 45 42 40 40 42 42 43 45 47 49 51 55 57 56 56 53 51 53 53 49 41 30 22 19 17 15 14 17 19 26 33 14 358 354 359 15 26 28 34 40 43 48 52 56 61 66 68 68 68 68 66 64 59 55 56 62 69 68 64 65 68 68 66 64 62 60 60 58 54 51 49 51 55 59 91 99
52 52 54 55 53 53 52 49 46 44 42 40 42 44 46 46 45 46 47 47 51 53 51 51 47 41 36 31 26 21 14 7 4 2 358 358 3 6 10 22 26 15 358 360 358 10 24 33 37 40 48 54 58 61 63 66 68 71 71 68 64 59 53 50 54 66 72 69 66 65 64 63 60 58 57 55 53 49 46 46 44 44 55 98 120
51 52 54 58 56 53 51 49 45 44 43 43 44 47 49 50 50 49 49 48 48 46 42 39 36 31 27 23 21 20 19 17 13 13 12 10 14 15 11 9 19 35 27 4 359 354 9 24 32 41 52 55 60 62 61 63 66 71 74 72 67 62 56 52 53 58 66 71 71 67 63 60 57 56 54 50 48 43 40 43 43 44 69 124 145
50 51 52 55 55 52 49 47 45 43 44 44 45 48 49 50 51 51 52 52 51 48 43 39 37 35 35 34 33 32 31 31 30 31 33 32 32 35 36 29 22 29 38 13 360 6 5 10 30 58 70 63 64 66 63 62 65 71 74 73 70 67 61 56 56 58 60 63 68 69 66 60 54 51 49 48 48 43 38 39 43 49 80 130 158
52 50 49 50 50 49 47 44 43 43 43 44 45 47 50 52 52 53 54 56 56 53 51 50 48 46 44 42 40 37 36 36 37 37 39 41 42 45 49 50 44 42 43 40 28 21 23 29 54 79 85 76 70 69 68 66 65 70 73 73 72 72 69 63 60 61 61 61 63 64 63 61 56 51 50 51 49 46 41 39 38 40 56 92 119
55 50 48 48 48 47 46 42 41 42 42 43 44 45 49 53 55 55 57 58 58 56 54 53 51 50 48 47 45 42 40 40 41 40 40 42 45 48 50 52 51 49 47 42 40 38 39 48 71 94 94 83 74 70 71 71 67 68 70 71 72 72 71 67 63 60 60 60 59 57 56 55 54 50 48 48 46 43 42 42 42 39 43 61 77
59 55 53 52 51 51 49 46 44 44 43 43 43 44 47 51 55 57 59 60 58 55 53 50 48 48 47 46 44 43 42 42 42 43 43 44 46 47 48 50 50 48 45 44 47 53 47 47 62 96 111 95 87 80 73 71 70 68 67 67 67 70 72 70 66 62 58 58 56 54 52 49 49 47 44 43 42 42 44 46 46 45 46 55 65
63 62 59 56 54 53 53 51 48 46 45 44 43 44 46 49 55 58 59 59 57 54 52 49 47 47 46 45 42 42 43 43 42 43 44 46 48 49 49 49 50 49 47 50 52 53 52 47 53 72 103 109 104 97 80 73 70 65 64 64 63 66 70 70 69 64 60 57 53 51 49 47 46 46 44 41 41 42 46 50 51 51 55 62 67
65 67 63 56 53 53 53 53 51 49 47 45 44 43 43 46 52 58 61 60 57 55 52 49 47 47 46 45 43 43 44 44 42 41 42 44 46 48 49 49 51 51 50 55 59 61 63 55 49 55 77 118 122 110 86 74 70 62 56 56 56 57 61 65 67 64 60 57 53 50 47 45 44 44 45 43 42 45 51 55 55 57 61 66 69
67 68 64 58 53 52 52 51 51 50 47 45 44 43 42 44 49 55 59 60 57 54 52 49 46 46 45 43 41 42 45 45 43 42 42 43 44 46 47 48 50 52 54 57 61 65 65 59 51 54 70 104 131 133 104 68 60 60 55 49 48 48 50 55 59 58 55 55 53 49 45 44 44 44 44 44 44 48 55 59 61 62 63 67 71
70 69 66 61 56 54 54 53 52 51 49 46 44 44 44 44 48 52 56 59 55 51 50 49 45 42 42 42 39 38 41 42 42 43 43 43 44 45 45 45 48 51 54 56 59 64 66 62 57 56 61 77 109 145 158 80 29 43 49 46 44 44 43 45 48 48 50 55 55 49 42 41 43 44 45 45 46 51 59 64 64 63 61 64 69
74 73 70 65 59 56 55 55 54 53 52 51 48 46 46 45 46 49 51 53 53 49 47 47 45 41 40 40 39 36 36 39 40 40 41 41 44 46 46 45 47 49 51 52 54 59 63 61 57 53 55 64 72 75 79 271 335 13 30 40 46 50 48 43 40 47 57 61 59 53 44 41 44 46 46 45 46 52 63 66 65 64 64 67 69
79 77 76 71 63 58 55 55 55 54 52 51 49 46 45 45 45 45 46 46 48 48 48 47 47 45 41 42 42 39 39 41 40 39 38 38 41 46 48 46 47 47 47 47 48 52 55 56 52 50 53 56 56 57 58 52 33 19 26 52 63 65 63 54 46 49 61 63 59 54 45 40 41 44 44 43 45 52 63 69 68 66 66 64 62
82 81 82 80 70 61 57 56 55 53 51 49 46 43 42 44 45 44 44 42 41 42 45 48 50 50 49 50 50 48 45 46 47 47 45 41 40 45 47 45 45 46 45 43 43 42 44 47 44 42 47 45 36 37 41 40 36 31 44 79 92 90 80 68 56 54 64 65 59 54 46 39 39 41 41 41 42 48 59 69 71 69 64 56 54
85 85 85 84 77 67 62 58 54 52 51 49 45 42 41 43 44 45 45 44 42 40 41 44 48 51 55 59 61 60 55 51 52 54 53 49 47 49 49 46 44 45 45 44 41 38 37 38 34 32 39 35 24 23 27 31 40 51 70 104 121 118 98 77 64 58 62 64 60 56 47 39 39 41 40 39 39 41 50 62 69 69 63 60 63
89 88 87 84 80 73 67 61 56 53 52 49 45 41 41 41 42 45 47 46 46 45 44 44 45 48 55 61 63 65 63 61 59 59 58 55 52 54 54 52 49 47 47 46 42 37 36 37 33 31 32 27 19 23 34 46 56 63 75 106 130 124 96 77 68 57 55 57 60 58 48 40 43 45 41 39 37 37 42 53 65 70 63 60 64
89 88 85 82 81 78 71 65 60 57 55 51 46 42 41 42 42 45 47 48 49 49 48 47 45 45 49 54 58 60 61 64 64 62 60 58 54 55 56 56 56 55 55 54 48 41 39 41 40 36 30 21 17 24 38 52 59 63 70 80 91 94 86 81 83 66 53 52 59 61 51 40 43 48 45 41 39 38 40 48 59 67 66 58 56
88 86 83 81 79 76 72 67 63 62 59 54 50 46 45 45 44 45 48 49 50 51 50 48 45 43 42 44 47 50 52 57 61 59 56 53 52 53 55 57 59 61 61 60 57 53 51 53 51 44 38 32 29 34 42 50 57 67 74 76 76 81 87 91 94 69 49 52 63 66 54 42 42 47 48 46 44 42 43 46 52 61 66 60 53
86 85 84 82 78 75 72 70 67 64 60 55 51 49 48 47 46 47 50 52 52 52 51 50 47 43 39 38 38 39 39 42 45 45 43 43 46 49 55 58 60 63 63 61 57 56 58 61 61 56 52 49 45 44 46 48 53 65 77 84 83 83 86 93 97 71 51 55 68 70 59 46 44 46 47 50 51 48 47 48 50 54 60 60 55
84 86 86 83 81 79 75 71 67 63 60 55 50 48 47 46 45 46 49 51 53 53 51 49 48 45 41 37 36 34 32 33 35 32 29 35 47 56 60 62 63 63 63 60 56 54 58 64 65 63 61 57 53 49 44 39 39 51 72 89 95 98 96 92 86 72 64 65 70 75 73 57 50 50 48 50 56 54 50 50 51 51 54 57 55
87 86 86 84 82 80 76 71 67 66 63 57 49 44 42 41 39 40 44 46 49 51 49 46 45 45 42 37 35 34 32 31 31 25 22 26 43 61 65 66 67 66 65 65 62 59 62 67 67 65 62 57 52 47 44 43 41 54 103 109 104 105 100 85 69 61 60 66 74 81 88 74 55 54 54 51 54 57 52 52 54 55 57 57 55
89 86 84 84 81 78 77 73 69 68 65 59 50 42 37 34 31 34 38 41 45 48 48 45 43 43 42 37 33 32 31 29 26 20 19 22 35 55 62 63 65 66 66 69 71 69 70 71 68 63 58 51 46 43 42 45 48 58 83 90 84 87 86 77 65 56 51 51 62 80 89 58 20 41 59 56 51 53 53 52 56 59 60 60 59
89 88 86 84 81 77 75 73 70 67 64 60 53 44 39 34 30 32 34 37 44 47 46 46 44 44 43 40 35 32 30 26 20 17 19 22 32 48 54 54 56 54 53 59 66 71 74 71 64 59 53 47 45 43 43 46 49 52 58 62 64 70 72 65 51 51 50 42 35 46 76 26 358 8 60 68 53 47 48 51 56 58 58 59 61
93 94 90 85 82 78 74 72 70 68 64 60 54 47 43 36 32 31 30 34 42 43 41 43 44 44 44 41 38 35 30 23 18 18 21 22 31 42 47 52 52 44 41 49 56 61 69 68 62 58 54 51 49 48 48 50 52 52 52 55 59 61 63 56 43 49 47 26 27 46 66 43 31 30 45 84 64 46 45 49 53 55 56 60 63